Time,TemperatureF,DewpointF,PressureIn,WindDirection,WindDirectionDegrees,WindSpeedMPH,WindSpeedGustMPH,Humidity,HourlyPrecipIn,Conditions,Clouds,dailyrainin,SoftwareType,DateUTC
2013-03-14 00:01:00,25.3,22.0,30.38,West,274,3.0,3.0,87,0.00,,,0.00,Wunderground v.1.15,2013-03-14 04:01:00,
2013-03-14 00:21:00,25.2,21.9,30.39,WSW,252,3.0,5.0,87,0.00,,,0.00,Wunderground v.1.15,2013-03-14 04:21:00,
2013-03-14 00:40:00,25.2,21.6,30.39,West,268,3.0,3.0,86,0.00,,,0.00,Wunderground v.1.15,2013-03-14 04:40:00,
2013-03-14 01:01:00,24.9,21.3,30.39,West,267,2.0,3.0,86,0.00,,,0.00,Wunderground v.1.15,2013-03-14 05:01:00,
2013-03-14 01:21:00,24.5,20.9,30.40,West,266,2.0,2.0,86,0.00,,,0.00,Wunderground v.1.15,2013-03-14 05:21:00,
2013-03-14 01:41:00,24.3,20.7,30.39,West,259,2.0,2.0,86,0.00,,,0.00,Wunderground v.1.15,2013-03-14 05:41:00,
2013-03-14 01:51:00,24.2,20.6,30.39,West,259,2.0,2.0,86,0.00,,,0.00,Wunderground v.1.15,2013-03-14 05:51:00,
2013-03-14 02:06:00,24.0,20.4,30.39,West,259,2.0,2.0,86,0.00,,,0.00,Wunderground v.1.15,2013-03-14 06:06:00,
2013-03-14 02:20:00,23.9,20.3,30.39,West,259,2.0,2.0,86,0.00,,,0.00,Wunderground v.1.15,2013-03-14 06:20:00,
2013-03-14 02:31:00,23.8,19.9,30.39,West,259,2.0,2.0,85,0.00,,,0.00,Wunderground v.1.15,2013-03-14 06:31:00,
2013-03-14 02:51:00,23.5,19.9,30.39,West,259,1.0,1.0,86,0.00,,,0.00,Wunderground v.1.15,2013-03-14 06:51:00,
2013-03-14 03:01:00,23.3,19.7,30.40,West,259,1.0,1.0,86,0.00,,,0.00,Wunderground v.1.15,2013-03-14 07:01:00,
2013-03-14 03:11:00,23.1,19.5,30.40,West,259,1.0,1.0,86,0.00,,,0.00,Wunderground v.1.15,2013-03-14 07:11:00,
2013-03-14 03:21:00,22.9,19.3,30.39,West,259,1.0,2.0,86,0.00,,,0.00,Wunderground v.1.15,2013-03-14 07:21:00,
2013-03-14 03:31:00,22.7,19.4,30.40,West,259,2.0,2.0,87,0.00,,,0.00,Wunderground v.1.15,2013-03-14 07:31:00,
2013-03-14 03:40:00,22.6,19.0,30.40,West,259,2.0,2.0,86,0.00,,,0.00,Wunderground v.1.15,2013-03-14 07:40:00,
2013-03-14 03:51:00,22.5,18.9,30.40,West,259,1.0,1.0,86,0.00,,,0.00,Wunderground v.1.15,2013-03-14 07:51:00,
2013-03-14 04:01:00,22.5,18.9,30.40,West,259,2.0,2.0,86,0.00,,,0.00,Wunderground v.1.15,2013-03-14 08:01:00,
2013-03-14 04:10:00,22.2,18.7,30.41,West,265,1.0,1.0,86,0.00,,,0.00,Wunderground v.1.15,2013-03-14 08:10:00,
2013-03-14 04:20:00,22.2,18.9,30.40,West,267,1.0,2.0,87,0.00,,,0.00,Wunderground v.1.15,2013-03-14 08:20:00,
2013-03-14 04:51:00,22.1,18.8,30.40,West,267,1.0,1.0,87,0.00,,,0.00,Wunderground v.1.15,2013-03-14 08:51:00,
2013-03-14 05:21:00,22.1,18.8,30.40,West,265,2.0,2.0,87,0.00,,,0.00,Wunderground v.1.15,2013-03-14 09:21:00,
2013-03-14 05:41:00,21.5,18.2,30.40,West,265,1.0,1.0,87,0.00,,,0.00,Wunderground v.1.15,2013-03-14 09:41:00,
2013-03-14 06:01:00,20.9,18.2,30.40,West,265,0.0,3.0,89,0.00,,,0.00,Wunderground v.1.15,2013-03-14 10:01:00,
2013-03-14 06:10:00,20.9,17.9,30.40,West,265,1.0,1.0,88,0.00,,,0.00,Wunderground v.1.15,2013-03-14 10:10:00,
2013-03-14 06:20:00,20.9,17.9,30.40,West,265,1.0,2.0,88,0.00,,,0.00,Wunderground v.1.15,2013-03-14 10:20:00,
2013-03-14 06:30:00,20.9,17.9,30.40,West,265,1.0,2.0,88,0.00,,,0.00,Wunderground v.1.15,2013-03-14 10:30:00,
2013-03-14 06:41:00,20.8,17.8,30.40,West,265,1.0,3.0,88,0.00,,,0.00,Wunderground v.1.15,2013-03-14 10:41:00,
2013-03-14 06:50:00,20.7,17.7,30.41,West,265,1.0,1.0,88,0.00,,,0.00,Wunderground v.1.15,2013-03-14 10:50:00,
2013-03-14 07:01:00,20.5,17.5,30.41,West,265,1.0,1.0,88,0.00,,,0.00,Wunderground v.1.15,2013-03-14 11:01:00,
2013-03-14 07:10:00,20.2,17.2,30.41,West,265,0.0,2.0,88,0.00,,,0.00,Wunderground v.1.15,2013-03-14 11:10:00,
2013-03-14 07:20:00,20.0,17.3,30.41,West,265,0.0,2.0,89,0.00,,,0.00,Wunderground v.1.15,2013-03-14 11:20:00,
2013-03-14 07:31:00,20.3,17.6,30.41,West,263,1.0,1.0,89,0.00,,,0.00,Wunderground v.1.15,2013-03-14 11:31:00,
2013-03-14 07:41:00,20.5,17.8,30.41,West,263,1.0,1.0,89,0.00,,,0.00,Wunderground v.1.15,2013-03-14 11:41:00,
2013-03-14 07:51:00,20.5,17.5,30.41,West,263,0.0,0.0,88,0.00,,,0.00,Wunderground v.1.15,2013-03-14 11:51:00,
2013-03-14 08:00:00,20.5,17.5,30.41,West,263,0.0,0.0,88,0.00,,,0.00,Wunderground v.1.15,2013-03-14 12:00:00,
2013-03-14 08:11:00,20.6,17.6,30.41,West,263,0.0,0.0,88,0.00,,,0.00,Wunderground v.1.15,2013-03-14 12:11:00,
2013-03-14 08:16:00,20.8,17.8,30.41,West,263,0.0,0.0,88,0.00,,,0.00,Wunderground v.1.15,2013-03-14 12:16:00,
2013-03-14 08:30:00,21.7,18.7,30.41,West,263,0.0,0.0,88,0.00,,,0.00,Wunderground v.1.15,2013-03-14 12:30:00,
2013-03-14 08:40:00,22.3,19.0,30.41,West,263,0.0,0.0,87,0.00,,,0.00,Wunderground v.1.15,2013-03-14 12:40:00,
2013-03-14 08:50:00,22.9,19.3,30.40,West,263,0.0,3.0,86,0.00,,,0.00,Wunderground v.1.15,2013-03-14 12:50:00,
2013-03-14 09:00:00,23.6,19.8,30.41,West,263,1.0,3.0,85,0.00,,,0.00,Wunderground v.1.15,2013-03-14 13:00:00,
2013-03-14 09:10:00,24.2,20.1,30.41,SW,231,2.0,2.0,84,0.00,,,0.00,Wunderground v.1.15,2013-03-14 13:10:00,
2013-03-14 09:31:00,25.4,21.0,30.42,SW,219,2.0,2.0,83,0.00,,,0.00,Wunderground v.1.15,2013-03-14 13:31:00,
2013-03-14 09:40:00,26.1,21.1,30.41,WNW,294,2.0,2.0,81,0.00,,,0.00,Wunderground v.1.15,2013-03-14 13:40:00,
2013-03-14 10:10:00,28.0,21.1,30.43,WNW,296,3.0,3.0,75,0.00,,,0.00,Wunderground v.1.15,2013-03-14 14:10:00,
2013-03-14 10:31:00,28.9,20.7,30.42,WSW,255,5.0,5.0,71,0.00,,,0.00,Wunderground v.1.15,2013-03-14 14:31:00,
2013-03-14 10:41:00,29.4,20.8,30.42,West,269,5.0,5.0,70,0.00,,,0.00,Wunderground v.1.15,2013-03-14 14:41:00,
2013-03-14 10:51:00,30.1,21.5,30.42,WNW,285,4.0,4.0,70,0.00,,,0.00,Wunderground v.1.15,2013-03-14 14:51:00,
2013-03-14 11:01:00,30.5,20.8,30.42,SW,229,4.0,4.0,67,0.00,,,0.01,Wunderground v.1.15,2013-03-14 15:01:00,
2013-03-14 11:31:00,32.0,22.3,30.42,SW,234,3.0,3.0,67,0.00,,,0.01,Wunderground v.1.15,2013-03-14 15:31:00,
2013-03-14 11:41:00,32.4,23.0,30.41,SSW,213,3.0,6.0,68,0.00,,,0.01,Wunderground v.1.15,2013-03-14 15:41:00,
2013-03-14 11:51:00,32.3,21.5,30.41,NNW,333,4.0,4.0,64,0.00,,,0.01,Wunderground v.1.15,2013-03-14 15:51:00,
2013-03-14 12:10:00,33.1,22.2,30.41,WSW,248,4.0,5.0,64,0.00,,,0.01,Wunderground v.1.15,2013-03-14 16:10:00,
2013-03-14 12:20:00,33.3,22.4,30.40,SSW,194,4.0,5.0,64,0.00,,,0.02,Wunderground v.1.15,2013-03-14 16:20:00,
2013-03-14 12:36:00,34.0,22.0,30.40,WSW,240,3.0,4.0,61,0.00,,,0.02,Wunderground v.1.15,2013-03-14 16:36:00,
2013-03-14 12:51:00,34.4,21.5,30.40,SSW,208,5.0,5.0,59,0.00,,,0.03,Wunderground v.1.15,2013-03-14 16:51:00,
2013-03-14 13:00:00,35.2,23.5,30.40,WSW,250,5.0,5.0,62,0.00,,,0.03,Wunderground v.1.15,2013-03-14 17:00:00,
2013-03-14 13:11:00,35.1,21.8,30.39,WNW,284,5.0,6.0,58,0.00,,,0.03,Wunderground v.1.15,2013-03-14 17:11:00,
2013-03-14 13:21:00,35.1,20.5,30.39,West,269,5.0,5.0,55,0.00,,,0.03,Wunderground v.1.15,2013-03-14 17:21:00,
2013-03-14 13:40:00,36.2,21.1,30.38,SW,217,5.0,9.0,54,0.00,,,0.03,Wunderground v.1.15,2013-03-14 17:40:00,
2013-03-14 14:21:00,37.4,21.8,30.36,WSW,248,5.0,6.0,53,0.00,,,0.04,Wunderground v.1.15,2013-03-14 18:21:00,
2013-03-14 14:31:00,38.0,22.4,30.35,SSW,206,4.0,4.0,53,0.00,,,0.05,Wunderground v.1.15,2013-03-14 18:31:00,
2013-03-14 14:41:00,37.7,22.1,30.35,West,280,4.0,4.0,53,0.00,,,0.05,Wunderground v.1.15,2013-03-14 18:41:00,
2013-03-14 14:51:00,38.3,19.8,30.34,WNW,294,4.0,6.0,47,0.00,,,0.05,Wunderground v.1.15,2013-03-14 18:51:00,
2013-03-14 15:30:00,39.5,21.9,30.32,SSW,205,6.0,6.0,49,0.00,,,0.05,Wunderground v.1.15,2013-03-14 19:30:00,
2013-03-14 15:41:00,39.8,23.1,30.32,WSW,244,4.0,9.0,51,0.00,,,0.05,Wunderground v.1.15,2013-03-14 19:41:00,
2013-03-14 16:10:00,39.7,21.6,30.31,SW,225,4.0,5.0,48,0.00,,,0.06,Wunderground v.1.15,2013-03-14 20:10:00,
2013-03-14 16:16:00,39.7,22.6,30.31,West,260,4.0,5.0,50,0.00,,,0.06,Wunderground v.1.15,2013-03-14 20:16:00,
2013-03-14 16:31:00,40.6,20.4,30.30,West,266,6.0,6.0,44,0.00,,,0.06,Wunderground v.1.15,2013-03-14 20:31:00,
2013-03-14 16:40:00,40.5,21.8,30.30,SW,227,6.0,6.0,47,0.00,,,0.06,Wunderground v.1.15,2013-03-14 20:40:00,
2013-03-14 16:50:00,41.0,20.7,30.30,WSW,237,4.0,4.0,44,0.00,,,0.06,Wunderground v.1.15,2013-03-14 20:50:00,
2013-03-14 17:11:00,41.5,19.5,30.29,SSW,203,5.0,7.0,41,0.00,,,0.06,Wunderground v.1.15,2013-03-14 21:11:00,
2013-03-14 17:21:00,40.9,20.1,30.29,WSW,250,4.0,4.0,43,0.00,,,0.06,Wunderground v.1.15,2013-03-14 21:21:00,
2013-03-14 17:30:00,40.9,22.7,30.29,West,278,5.0,5.0,48,0.00,,,0.06,Wunderground v.1.15,2013-03-14 21:30:00,
2013-03-14 17:41:00,40.8,21.6,30.29,WSW,256,3.0,3.0,46,0.00,,,0.06,Wunderground v.1.15,2013-03-14 21:41:00,
2013-03-14 17:51:00,40.5,20.8,30.29,West,269,4.0,6.0,45,0.00,,,0.06,Wunderground v.1.15,2013-03-14 21:51:00,
2013-03-14 18:01:00,40.1,21.0,30.29,WSW,242,3.0,3.0,46,0.00,,,0.06,Wunderground v.1.15,2013-03-14 22:01:00,
2013-03-14 18:11:00,40.1,21.5,30.29,WSW,242,3.0,3.0,47,0.00,,,0.06,Wunderground v.1.15,2013-03-14 22:11:00,
2013-03-14 18:21:00,40.1,22.0,30.29,WSW,242,1.0,1.0,48,0.00,,,0.06,Wunderground v.1.15,2013-03-14 22:21:00,
2013-03-14 18:41:00,40.1,22.9,30.28,WSW,239,1.0,1.0,50,0.00,,,0.06,Wunderground v.1.15,2013-03-14 22:41:00,
2013-03-14 19:31:00,39.7,23.5,30.27,SSW,209,1.0,1.0,52,0.00,,,0.06,Wunderground v.1.15,2013-03-14 23:31:00,
2013-03-14 19:41:00,39.3,23.1,30.27,SSW,209,1.0,1.0,52,0.00,,,0.06,Wunderground v.1.15,2013-03-14 23:41:00,
2013-03-14 19:51:00,38.8,23.1,30.27,SSW,209,1.0,1.0,53,0.00,,,0.06,Wunderground v.1.15,2013-03-14 23:51:00,
2013-03-14 20:01:00,38.6,22.5,30.27,SSW,209,0.0,0.0,52,0.00,,,0.06,Wunderground v.1.15,2013-03-15 00:01:00,
2013-03-14 20:21:00,37.7,23.4,30.27,SSW,209,0.0,0.0,56,0.00,,,0.06,Wunderground v.1.15,2013-03-15 00:21:00,
2013-03-14 20:31:00,37.3,23.4,30.26,SSW,209,0.0,0.0,57,0.00,,,0.06,Wunderground v.1.15,2013-03-15 00:31:00,
2013-03-14 20:41:00,37.1,24.5,30.27,SSW,209,0.0,0.0,60,0.00,,,0.06,Wunderground v.1.15,2013-03-15 00:41:00,
2013-03-14 20:51:00,36.7,23.7,30.27,SSW,209,0.0,0.0,59,0.00,,,0.06,Wunderground v.1.15,2013-03-15 00:51:00,
2013-03-14 21:01:00,36.4,23.8,30.27,SSW,209,0.0,0.0,60,0.00,,,0.06,Wunderground v.1.15,2013-03-15 01:01:00,
2013-03-14 21:11:00,36.3,22.9,30.27,SSW,209,0.0,0.0,58,0.00,,,0.06,Wunderground v.1.15,2013-03-15 01:11:00,
2013-03-14 21:20:00,36.4,24.6,30.28,South,183,0.0,4.0,62,0.00,,,0.06,Wunderground v.1.15,2013-03-15 01:20:00,
2013-03-14 21:31:00,36.9,23.9,30.27,WSW,251,2.0,2.0,59,0.00,,,0.06,Wunderground v.1.15,2013-03-15 01:31:00,
2013-03-14 21:41:00,37.5,23.6,30.28,WSW,254,3.0,4.0,57,0.00,,,0.06,Wunderground v.1.15,2013-03-15 01:41:00,
2013-03-14 22:00:00,37.8,25.1,30.29,West,261,5.0,5.0,60,0.00,,,0.06,Wunderground v.1.15,2013-03-15 02:00:00,
2013-03-14 22:11:00,37.6,25.4,30.28,WSW,240,4.0,5.0,61,0.00,,,0.06,Wunderground v.1.15,2013-03-15 02:11:00,
2013-03-14 22:31:00,36.9,26.6,30.27,West,267,3.0,4.0,66,0.00,,,0.06,Wunderground v.1.15,2013-03-15 02:31:00,
2013-03-14 23:01:00,34.8,28.0,30.25,WSW,242,4.0,4.0,76,0.00,,,0.06,Wunderground v.1.15,2013-03-15 03:01:00,
2013-03-14 23:21:00,33.6,28.1,30.25,SSW,198,3.0,6.0,80,0.00,,,0.06,Wunderground v.1.15,2013-03-15 03:21:00,
2013-03-14 23:31:00,33.4,28.5,30.24,SW,215,3.0,4.0,82,0.00,,,0.06,Wunderground v.1.15,2013-03-15 03:31:00,
2013-03-14 23:41:00,33.3,28.7,30.24,WSW,243,4.0,4.0,83,0.00,,,0.06,Wunderground v.1.15,2013-03-15 03:41:00,
2013-03-14 23:51:00,33.2,29.2,30.23,SSW,199,4.0,4.0,85,0.00,,,0.06,Wunderground v.1.15,2013-03-15 03:51:00,